Weather History for KWWR - October, 2011

Change the Weather History Date:

Monday, October 24, 2011

  Actual Average (KGAG) Record (KGAG)
Temperature  
Mean Temperature 66 °F -  
Max Temperature 86 °F 68 °F 88 °F (2014)
Min Temperature 46 °F 40 °F 21 °F (2005)
Cooling Degree Days 1    
Growing Degree Days 16 (Base 50)    
Moisture  
Dew Point 35 °F    
Average Humidity 32    
Maximum Humidity 76    
Minimum Humidity 12    
Precipitation  
Precipitation 0.00 in - - ()
Sea Level Pressure  
Sea Level Pressure 30.09 in    
Wind  
Wind Speed 13 mph (South)    
Max Wind Speed 29 mph    
Max Gust Speed 37 mph    
Visibility 10 miles    
Events      
Averages and records for this station are not official NWS values.
T = Trace of Precipitation, MM = Missing Value Source: NWS Daily Summary

Daily Weather History Graph

Daily Weather History Graph

Search for Another Location

Airport or City:

Trip Planner

Search our weather history database for the weather conditions in past years. The results will help you decide how hot, cold, wet, or windy it might be!

Date:

Astronomy

Oct. 24, 2011 Rise Set
Actual Time 7:53 AM CDT 6:50 PM CDT
Civil Twilight 7:27 AM CDT 7:16 PM CDT
Nautical Twilight 6:56 AM CDT 7:47 PM CDT
Astronomical Twilight 6:26 AM CDT 8:16 PM CDT
Moon 5:17 AM CDT (10/24) 5:14 PM CDT (10/24)
Length of Visible Light 11h 49m
Length of Day
10h 57m
Waning Crescent, 7% of the Moon is Illuminated
Oct 24
Waning Crescent
Oct 26
New
Nov 2
First Quarter
Nov 10
Full
Nov 18
Last Quarter

Hourly Weather History & Observations

Time (CDT) Temp. Windchill Dew Point Humidity Pressure Visibility Wind Dir Wind Speed Gust Speed Precip Events Conditions
12:15 AM 62.6 °F - 33.8 °F 34% 30.15 in 10.0 mi ESE 5.8 mph - N/A   Clear
12:35 AM 62.6 °F - 33.8 °F 34% 30.15 in 10.0 mi SE 6.9 mph - N/A   Clear
12:55 AM 60.8 °F - 33.8 °F 36% 30.15 in 10.0 mi SE 9.2 mph - N/A   Clear
1:15 AM 60.8 °F - 33.8 °F 36% 30.15 in 10.0 mi SE 10.4 mph - N/A   Clear
1:35 AM 62.6 °F - 32.0 °F 32% 30.15 in 10.0 mi SE 10.4 mph - N/A   Clear
1:55 AM 62.6 °F - 32.0 °F 32% 30.15 in 10.0 mi SSE 9.2 mph - N/A   Clear
2:35 AM 60.8 °F - 32.0 °F 34% 30.15 in 10.0 mi SSE 10.4 mph - N/A   Clear
2:55 AM 59.0 °F - 33.8 °F 39% 30.15 in 10.0 mi SSE 8.1 mph - N/A   Clear
3:15 AM 60.8 °F - 33.8 °F 36% 30.15 in 10.0 mi SSE 9.2 mph - N/A   Clear
3:55 AM 59.0 °F - 35.6 °F 42% 30.15 in 10.0 mi South 9.2 mph - N/A   Clear
4:15 AM 60.8 °F - 37.4 °F 42% 30.15 in 10.0 mi SSE 9.2 mph - N/A   Clear
4:35 AM 59.0 °F - 35.6 °F 42% 30.14 in 10.0 mi SSE 9.2 mph - N/A   Clear
4:55 AM 59.0 °F - 37.4 °F 45% 30.14 in 10.0 mi South 9.2 mph - N/A   Clear
5:15 AM 59.0 °F - 39.2 °F 48% 30.14 in 10.0 mi South 6.9 mph - N/A   Clear
5:35 AM 59.0 °F - 39.2 °F 48% 30.13 in 10.0 mi South 9.2 mph - N/A   Clear
5:55 AM 59.0 °F - 39.2 °F 48% 30.13 in 10.0 mi South 9.2 mph - N/A   Clear
6:15 AM 59.0 °F - 39.2 °F 48% 30.14 in 10.0 mi South 9.2 mph - N/A   Clear
6:35 AM 53.6 °F - 39.2 °F 58% 30.14 in 10.0 mi SW 3.5 mph - N/A   Clear
6:55 AM 50.0 °F - 39.2 °F 66% 30.14 in 10.0 mi Calm Calm - N/A   Clear
7:15 AM 46.4 °F 45.2 °F 39.2 °F 76% 30.15 in 10.0 mi West 3.5 mph - N/A   Clear
7:35 AM 46.4 °F 45.2 °F 39.2 °F 76% 30.15 in 10.0 mi West 3.5 mph - N/A   Clear
7:55 AM 46.4 °F 44.3 °F 37.4 °F 71% 30.16 in 10.0 mi WSW 4.6 mph - N/A   Clear
8:15 AM 46.4 °F 45.2 °F 39.2 °F 76% 30.16 in 10.0 mi SW 3.5 mph - N/A   Clear
8:35 AM 51.8 °F - 41.0 °F 67% 30.16 in 10.0 mi SSW 5.8 mph - N/A   Clear
8:55 AM 60.8 °F - 42.8 °F 52% 30.16 in 10.0 mi SSW 8.1 mph - N/A   Clear
9:15 AM 64.4 °F - 41.0 °F 42% 30.16 in 10.0 mi SSW 9.2 mph - N/A   Clear
9:35 AM 68.0 °F - 41.0 °F 37% 30.16 in 10.0 mi SSW 11.5 mph - N/A   Clear
9:55 AM 69.8 °F - 41.0 °F 35% 30.16 in 10.0 mi SSW 13.8 mph - N/A   Clear
10:15 AM 69.8 °F - 41.0 °F 35% 30.17 in 10.0 mi SSW 12.7 mph - N/A   Clear
10:35 AM 71.6 °F - 41.0 °F 33% 30.16 in 10.0 mi SW 12.7 mph - N/A   Clear
10:55 AM 73.4 °F - 37.4 °F 27% 30.16 in 10.0 mi SSW 16.1 mph - N/A   Clear
11:15 AM 77.0 °F - 33.8 °F 21% 30.16 in 10.0 mi SSW 15.0 mph - N/A   Clear
11:35 AM 78.8 °F - 32.0 °F 18% 30.16 in 10.0 mi SSW 20.7 mph 25.3 mph N/A   Clear
11:55 AM 78.8 °F - 32.0 °F 18% 30.15 in 10.0 mi SSW 19.6 mph - N/A   Clear
12:15 PM 80.6 °F - 30.2 °F 16% 30.14 in 10.0 mi SW 18.4 mph 25.3 mph N/A   Clear
12:35 PM 82.4 °F - 30.2 °F 15% 30.12 in 10.0 mi South 21.9 mph 29.9 mph N/A   Clear
12:55 PM 82.4 °F - 28.4 °F 14% 30.11 in 10.0 mi SSW 24.2 mph 32.2 mph N/A   Clear
1:15 PM 84.2 °F - 28.4 °F 13% 30.10 in 10.0 mi SSW 21.9 mph 29.9 mph N/A   Clear
1:35 PM 86.0 °F - 28.4 °F 12% 30.08 in 10.0 mi SSW 19.6 mph 27.6 mph N/A   Clear
1:55 PM 86.0 °F - 30.2 °F 13% 30.07 in 10.0 mi South 25.3 mph 32.2 mph N/A   Clear
2:15 PM 86.0 °F - 30.2 °F 13% 30.05 in 10.0 mi South 27.6 mph 33.4 mph N/A   Clear
2:35 PM 86.0 °F - 32.0 °F 14% 30.05 in 10.0 mi South 23.0 mph 34.5 mph N/A   Clear
2:55 PM 86.0 °F - 30.2 °F 13% 30.04 in 10.0 mi South 21.9 mph 34.5 mph N/A   Clear
3:15 PM 86.0 °F - 30.2 °F 13% 30.02 in 10.0 mi South 25.3 mph 31.1 mph N/A   Clear
3:55 PM 86.0 °F - 30.2 °F 13% 30.01 in 10.0 mi South 26.5 mph 33.4 mph N/A   Clear
4:15 PM 86.0 °F - 32.0 °F 14% 30.01 in 10.0 mi South 25.3 mph 35.7 mph N/A   Clear
4:35 PM 84.2 °F - 33.8 °F 16% 30.00 in 10.0 mi South 28.8 mph 35.7 mph N/A   Clear
4:55 PM 84.2 °F - 33.8 °F 16% 29.99 in 10.0 mi South 25.3 mph 34.5 mph N/A   Clear
5:15 PM 84.2 °F - 33.8 °F 16% 29.98 in 10.0 mi South 25.3 mph 33.4 mph N/A   Clear
5:35 PM 82.4 °F - 32.0 °F 16% 29.98 in 10.0 mi South 25.3 mph 34.5 mph N/A   Clear
5:55 PM 82.4 °F - 32.0 °F 16% 29.97 in 10.0 mi South 25.3 mph 33.4 mph N/A   Clear
6:15 PM 80.6 °F - 33.8 °F 18% 29.97 in 10.0 mi South 24.2 mph 32.2 mph N/A   Clear
6:35 PM 80.6 °F - 33.8 °F 18% 29.97 in 10.0 mi South 20.7 mph 28.8 mph N/A   Clear
6:55 PM 78.8 °F - 33.8 °F 20% 29.97 in 10.0 mi South 20.7 mph 25.3 mph N/A   Clear
7:15 PM 77.0 °F - 33.8 °F 21% 29.97 in 10.0 mi South 21.9 mph 28.8 mph N/A   Clear
7:35 PM 77.0 °F - 33.8 °F 21% 29.97 in 10.0 mi South 19.6 mph 27.6 mph N/A   Clear
7:55 PM 75.2 °F - 33.8 °F 22% 29.97 in 10.0 mi South 23.0 mph 28.8 mph N/A   Clear
8:15 PM 73.4 °F - 33.8 °F 23% 29.97 in 10.0 mi South 23.0 mph 27.6 mph N/A   Clear
8:35 PM 73.4 °F - 33.8 °F 23% 29.97 in 10.0 mi South 27.6 mph 31.1 mph N/A   Clear
9:15 PM 71.6 °F - 35.6 °F 27% 29.97 in 10.0 mi South 25.3 mph 34.5 mph N/A   Clear
9:35 PM 71.6 °F - 35.6 °F 27% 29.97 in 10.0 mi South 27.6 mph 36.8 mph N/A   Clear
9:55 PM 71.6 °F - 37.4 °F 29% 29.97 in 10.0 mi South 26.5 mph 33.4 mph N/A   Clear
10:15 PM 71.6 °F - 37.4 °F 29% 29.97 in 10.0 mi South 25.3 mph 34.5 mph N/A   Clear
10:35 PM 71.6 °F - 37.4 °F 29% 29.97 in 10.0 mi South 27.6 mph 35.7 mph N/A   Clear
10:55 PM 69.8 °F - 37.4 °F 31% 29.96 in 10.0 mi South 27.6 mph 35.7 mph N/A   Clear
11:15 PM 69.8 °F - 37.4 °F 31% 29.96 in 10.0 mi South 29.9 mph 38.0 mph N/A   Clear
11:35 PM 71.6 °F - 37.4 °F 29% 29.95 in 10.0 mi South 29.9 mph 38.0 mph N/A   Clear
11:55 PM 69.8 °F - 37.4 °F 31% 29.95 in 10.0 mi South 28.8 mph 38.0 mph N/A   Clear